EZY35NQ EGCC-LFPG

Flight info

Callsign EZY35NQ
Flight time 1h 6m
Altitude 39000
Route LISTO P18 TELBA L151 MID Y803 SFD UM605 BIBAX
Aircraft A319/M-SDE2E3FGIJ1RWXYZ/LB1

Departure

Time 2026-05-06 15:42
Airport Manchester Airport (EGCC)

Arrival

Time 2026-05-06 16:48
Airport Charles de Gaulle International Airport (LFPG)
Time Latitude Longitude Altitude Speed Heading
2026-05-06 15:06 53.36526 -2.27877 255 ft 0 kts 45°
2026-05-06 15:31 53.36513 -2.27900 255 ft 3 kts 45°
2026-05-06 15:31 53.36496 -2.27927 255 ft 2 kts 45°
2026-05-06 15:32 53.36481 -2.27983 255 ft 3 kts 121°
2026-05-06 15:32 53.36495 -2.28011 255 ft 3 kts 135°
2026-05-06 15:32 53.36506 -2.28030 255 ft 0 kts 135°
2026-05-06 15:35 53.36499 -2.28020 255 ft 4 kts 141°
2026-05-06 15:35 53.36459 -2.27977 255 ft 10 kts 143°
2026-05-06 15:35 53.36393 -2.27936 255 ft 11 kts 202°
2026-05-06 15:35 53.36335 -2.28027 255 ft 12 kts 223°
2026-05-06 15:36 53.36259 -2.28083 255 ft 12 kts 207°
2026-05-06 15:36 53.36187 -2.28153 255 ft 11 kts 198°
2026-05-06 15:36 53.36121 -2.28092 255 ft 12 kts 136°
2026-05-06 15:36 53.36057 -2.27995 255 ft 14 kts 138°
2026-05-06 15:37 53.35980 -2.27886 255 ft 15 kts 142°
2026-05-06 15:37 53.35878 -2.27850 254 ft 16 kts 184°
2026-05-06 15:37 53.35749 -2.27873 247 ft 21 kts 185°
2026-05-06 15:37 53.35640 -2.27895 241 ft 13 kts 199°
2026-05-06 15:38 53.35569 -2.28014 237 ft 17 kts 231°
2026-05-06 15:38 53.35470 -2.28142 234 ft 19 kts 202°
2026-05-06 15:38 53.35346 -2.28180 236 ft 19 kts 194°
2026-05-06 15:38 53.35230 -2.28306 232 ft 21 kts 227°
2026-05-06 15:39 53.35132 -2.28506 227 ft 24 kts 231°
2026-05-06 15:39 53.35031 -2.28712 228 ft 23 kts 225°
2026-05-06 15:39 53.34918 -2.28909 225 ft 24 kts 226°
2026-05-06 15:39 53.34795 -2.29135 223 ft 28 kts 230°
2026-05-06 15:40 53.34709 -2.29304 215 ft 12 kts 225°
2026-05-06 15:40 53.34634 -2.29346 214 ft 11 kts 183°
2026-05-06 15:40 53.34566 -2.29315 213 ft 10 kts 154°
2026-05-06 15:40 53.34538 -2.29228 214 ft 9 kts 63°
2026-05-06 15:41 53.34583 -2.29131 213 ft 16 kts 51°
2026-05-06 15:41 53.34785 -2.28712 228 ft 84 kts 51°
2026-05-06 15:41 53.35301 -2.27648 244 ft 149 kts 51°
2026-05-06 15:41 53.35967 -2.26258 809 ft 156 kts 51°
2026-05-06 15:42 53.36655 -2.24828 1603 ft 159 kts 52°
2026-05-06 15:42 53.37367 -2.23259 2116 ft 181 kts 61°
2026-05-06 15:42 53.37571 -2.21066 2539 ft 209 kts 101°
2026-05-06 15:42 53.36789 -2.18926 3050 ft 237 kts 138°
2026-05-06 15:43 53.35356 -2.17256 3816 ft 256 kts 152°
2026-05-06 15:43 53.33582 -2.16698 4675 ft 268 kts 182°
2026-05-06 15:43 53.31723 -2.17011 4942 ft 268 kts 185°
2026-05-06 15:43 53.29869 -2.17361 5002 ft 268 kts 186°
2026-05-06 15:44 53.28017 -2.17698 5003 ft 268 kts 185°
2026-05-06 15:44 53.26167 -2.18020 5013 ft 268 kts 184°
2026-05-06 15:44 53.24311 -2.18327 5008 ft 267 kts 185°
2026-05-06 15:44 53.22462 -2.18624 5010 ft 268 kts 184°
2026-05-06 15:45 53.20600 -2.18917 5012 ft 269 kts 185°
2026-05-06 15:45 53.18765 -2.19205 5016 ft 268 kts 185°
2026-05-06 15:45 53.16909 -2.19500 5019 ft 269 kts 184°
2026-05-06 15:45 53.15045 -2.19797 5014 ft 269 kts 185°
2026-05-06 15:46 53.13175 -2.20091 5116 ft 274 kts 184°
2026-05-06 15:46 53.11258 -2.20393 6170 ft 276 kts 185°
2026-05-06 15:46 53.09336 -2.20691 7256 ft 279 kts 185°
2026-05-06 15:46 53.07385 -2.20995 8265 ft 284 kts 186°
2026-05-06 15:47 53.05404 -2.21306 9265 ft 289 kts 186°
2026-05-06 15:47 53.03388 -2.21623 10216 ft 294 kts 186°
2026-05-06 15:47 53.01277 -2.21958 10656 ft 317 kts 187°
2026-05-06 15:47 52.99023 -2.22310 11295 ft 329 kts 187°
2026-05-06 15:48 52.96721 -2.22667 12122 ft 335 kts 187°
2026-05-06 15:48 52.94379 -2.23029 12982 ft 340 kts 187°
2026-05-06 15:48 52.92007 -2.23396 13853 ft 345 kts 187°
2026-05-06 15:48 52.89608 -2.23765 14621 ft 348 kts 187°
2026-05-06 15:49 52.87178 -2.24138 15393 ft 352 kts 187°
2026-05-06 15:49 52.84761 -2.24815 16153 ft 354 kts 195°
2026-05-06 15:49 52.82359 -2.25744 16927 ft 357 kts 195°
2026-05-06 15:49 52.79931 -2.26683 17710 ft 360 kts 195°
2026-05-06 15:50 52.77473 -2.27632 18460 ft 364 kts 195°
2026-05-06 15:50 52.74998 -2.28584 19126 ft 367 kts 195°
2026-05-06 15:50 52.72501 -2.29544 19795 ft 370 kts 195°
2026-05-06 15:50 52.69957 -2.30330 20443 ft 375 kts 187°
2026-05-06 15:51 52.67330 -2.30278 21099 ft 382 kts 175°
2026-05-06 15:51 52.64724 -2.29268 21751 ft 388 kts 162°
2026-05-06 15:51 52.62278 -2.27309 22399 ft 395 kts 149°
2026-05-06 15:51 52.59988 -2.24782 23052 ft 398 kts 147°
2026-05-06 15:52 52.57677 -2.22233 23679 ft 402 kts 148°
2026-05-06 15:52 52.55349 -2.19686 24209 ft 405 kts 148°
2026-05-06 15:52 52.52990 -2.17123 24733 ft 407 kts 148°
2026-05-06 15:52 52.50614 -2.14547 25252 ft 410 kts 149°
2026-05-06 15:53 52.48256 -2.11991 25750 ft 413 kts 149°
2026-05-06 15:53 52.45850 -2.09383 26257 ft 416 kts 149°
2026-05-06 15:53 52.43433 -2.06762 26751 ft 418 kts 149°
2026-05-06 15:53 52.40998 -2.04126 27238 ft 421 kts 149°
2026-05-06 15:54 52.38542 -2.01467 27719 ft 424 kts 149°
2026-05-06 15:54 52.36076 -1.98794 28188 ft 427 kts 149°
2026-05-06 15:54 52.33595 -1.96107 28655 ft 429 kts 149°
2026-05-06 15:54 52.31092 -1.93405 29135 ft 432 kts 149°
2026-05-06 15:55 52.28573 -1.90697 29600 ft 435 kts 150°
2026-05-06 15:55 52.26041 -1.87978 30020 ft 437 kts 149°
2026-05-06 15:55 52.23490 -1.85238 30417 ft 440 kts 149°
2026-05-06 15:55 52.20927 -1.82485 30791 ft 442 kts 149°
2026-05-06 15:56 52.18349 -1.79726 31153 ft 445 kts 149°
2026-05-06 15:56 52.15751 -1.76951 31498 ft 447 kts 149°
2026-05-06 15:56 52.13145 -1.74173 31916 ft 448 kts 149°
2026-05-06 15:56 52.10544 -1.71401 32418 ft 447 kts 149°
2026-05-06 15:57 52.07941 -1.68629 32916 ft 446 kts 149°
2026-05-06 15:57 52.05350 -1.65872 33403 ft 445 kts 149°
2026-05-06 15:57 52.02764 -1.63116 33878 ft 444 kts 149°
2026-05-06 15:57 52.00181 -1.60367 34311 ft 444 kts 149°
2026-05-06 15:58 51.97597 -1.57633 34676 ft 444 kts 149°
2026-05-06 15:58 51.95012 -1.54909 35030 ft 444 kts 149°
2026-05-06 15:58 51.92418 -1.52181 35375 ft 444 kts 149°
2026-05-06 15:58 51.89824 -1.49457 35706 ft 445 kts 149°
2026-05-06 15:59 51.87233 -1.46735 36032 ft 445 kts 149°
2026-05-06 15:59 51.84628 -1.43995 36354 ft 445 kts 149°
2026-05-06 15:59 51.82053 -1.41285 36658 ft 445 kts 149°
2026-05-06 15:59 51.79441 -1.38546 36947 ft 445 kts 149°
2026-05-06 16:00 51.76835 -1.35821 37228 ft 446 kts 149°
2026-05-06 16:00 51.74235 -1.33106 37518 ft 446 kts 149°
2026-05-06 16:00 51.71633 -1.30390 37800 ft 446 kts 149°
2026-05-06 16:00 51.69028 -1.27672 38081 ft 446 kts 149°
2026-05-06 16:01 51.66415 -1.24946 38356 ft 447 kts 149°
2026-05-06 16:01 51.63807 -1.22230 38634 ft 447 kts 149°
2026-05-06 16:01 51.61195 -1.19517 38824 ft 447 kts 149°
2026-05-06 16:01 51.58580 -1.16807 38964 ft 447 kts 149°
2026-05-06 16:02 51.53341 -1.11397 39003 ft 448 kts 149°
2026-05-06 16:02 51.48097 -1.05993 39000 ft 448 kts 149°
2026-05-06 16:03 51.42860 -1.00601 38998 ft 447 kts 149°
2026-05-06 16:03 51.37620 -0.95226 38993 ft 447 kts 149°
2026-05-06 16:04 51.32416 -0.89902 38996 ft 447 kts 149°
2026-05-06 16:04 51.27201 -0.84580 39004 ft 447 kts 149°
2026-05-06 16:05 51.21957 -0.79254 39009 ft 447 kts 149°
2026-05-06 16:05 51.16706 -0.73936 39011 ft 447 kts 149°
2026-05-06 16:06 51.11454 -0.68627 39009 ft 447 kts 149°
2026-05-06 16:06 51.06393 -0.62946 39007 ft 449 kts 138°
2026-05-06 16:07 51.02541 -0.55151 38990 ft 451 kts 122°
2026-05-06 16:07 50.99260 -0.46654 38990 ft 452 kts 123°
2026-05-06 16:08 50.95950 -0.38173 38986 ft 452 kts 123°
2026-05-06 16:08 50.92627 -0.29703 38987 ft 452 kts 123°
2026-05-06 16:09 50.89306 -0.21243 38990 ft 452 kts 123°
2026-05-06 16:09 50.85973 -0.12792 38985 ft 452 kts 123°
2026-05-06 16:10 50.83200 -0.05771 38990 ft 452 kts 123°
2026-05-06 16:10 50.79321 0.04029 38990 ft 452 kts 123°
2026-05-06 16:11 50.75748 0.12153 38969 ft 450 kts 134°
2026-05-06 16:11 50.74291 0.14507 38596 ft 455 kts 140°
2026-05-06 16:11 50.71843 0.17664 37988 ft 453 kts 143°
2026-05-06 16:12 50.69384 0.20742 37523 ft 448 kts 143°
2026-05-06 16:12 50.66971 0.23800 37051 ft 443 kts 142°
2026-05-06 16:12 50.64585 0.26849 36553 ft 440 kts 142°
2026-05-06 16:12 50.62219 0.29881 36062 ft 436 kts 142°
2026-05-06 16:13 50.59877 0.32880 35567 ft 433 kts 142°
2026-05-06 16:13 50.57549 0.35860 35054 ft 431 kts 142°
2026-05-06 16:13 50.55226 0.38828 34566 ft 428 kts 142°
2026-05-06 16:13 50.52918 0.41765 34040 ft 426 kts 142°
2026-05-06 16:14 50.50614 0.44682 33500 ft 424 kts 142°
2026-05-06 16:14 50.48321 0.47577 32998 ft 420 kts 142°
2026-05-06 16:14 50.46056 0.50435 32500 ft 416 kts 142°
2026-05-06 16:14 50.44148 0.52840 32094 ft 413 kts 142°
2026-05-06 16:15 50.42190 0.55307 31666 ft 410 kts 142°
2026-05-06 16:15 50.39973 0.58099 31198 ft 406 kts 142°
2026-05-06 16:15 50.37780 0.60859 30725 ft 402 kts 142°
2026-05-06 16:16 50.35606 0.63593 30276 ft 399 kts 142°
2026-05-06 16:16 50.33481 0.66267 29810 ft 396 kts 142°
2026-05-06 16:16 50.31358 0.68938 29372 ft 391 kts 143°
2026-05-06 16:16 50.29214 0.71623 28937 ft 386 kts 143°
2026-05-06 16:17 50.27121 0.74240 28526 ft 383 kts 143°
2026-05-06 16:17 50.25056 0.76825 28116 ft 379 kts 143°
2026-05-06 16:17 50.23009 0.79387 27710 ft 375 kts 143°
2026-05-06 16:17 50.20980 0.81916 27303 ft 372 kts 143°
2026-05-06 16:18 50.18973 0.84412 26888 ft 368 kts 143°
2026-05-06 16:18 50.16968 0.86905 26476 ft 365 kts 143°
2026-05-06 16:18 50.14993 0.89362 26056 ft 362 kts 143°
2026-05-06 16:18 50.13055 0.91771 25633 ft 360 kts 143°
2026-05-06 16:19 50.11103 0.94190 25198 ft 357 kts 143°
2026-05-06 16:19 50.09161 0.96587 24756 ft 355 kts 143°
2026-05-06 16:19 50.07230 0.98969 24316 ft 354 kts 143°
2026-05-06 16:19 50.05218 1.01153 23871 ft 351 kts 152°
2026-05-06 16:20 50.03024 1.02848 23583 ft 354 kts 156°
2026-05-06 16:20 50.00802 1.04517 23219 ft 356 kts 156°
2026-05-06 16:20 49.98574 1.06198 22895 ft 355 kts 156°
2026-05-06 16:20 49.96359 1.07871 22565 ft 353 kts 155°
2026-05-06 16:21 49.94155 1.09537 22245 ft 352 kts 155°
2026-05-06 16:21 49.91955 1.11198 21925 ft 352 kts 155°
2026-05-06 16:21 49.89758 1.12849 21597 ft 349 kts 155°
2026-05-06 16:21 49.87573 1.14485 21291 ft 349 kts 155°
2026-05-06 16:22 49.85384 1.16119 20975 ft 349 kts 155°
2026-05-06 16:22 49.83202 1.17748 20661 ft 348 kts 155°
2026-05-06 16:22 49.81023 1.19376 20344 ft 346 kts 155°
2026-05-06 16:22 49.78862 1.20988 20028 ft 343 kts 155°
2026-05-06 16:23 49.76712 1.22589 19709 ft 342 kts 155°
2026-05-06 16:23 49.74567 1.24187 19402 ft 342 kts 154°
2026-05-06 16:23 49.72434 1.25779 19089 ft 339 kts 154°
2026-05-06 16:23 49.70314 1.27362 18781 ft 338 kts 154°
2026-05-06 16:24 49.68202 1.28937 18471 ft 337 kts 154°
2026-05-06 16:24 49.66091 1.30508 18160 ft 335 kts 154°
2026-05-06 16:24 49.63998 1.32063 17843 ft 334 kts 154°
2026-05-06 16:24 49.61910 1.33608 17532 ft 332 kts 154°
2026-05-06 16:25 49.59821 1.35146 17240 ft 331 kts 154°
2026-05-06 16:25 49.57757 1.36669 16931 ft 328 kts 154°
2026-05-06 16:25 49.55695 1.38190 16631 ft 329 kts 154°
2026-05-06 16:25 49.53630 1.39713 16334 ft 329 kts 154°
2026-05-06 16:26 49.51599 1.41212 16045 ft 327 kts 154°
2026-05-06 16:26 49.49529 1.42741 15734 ft 325 kts 154°
2026-05-06 16:26 49.47517 1.44225 15442 ft 325 kts 154°
2026-05-06 16:26 49.45480 1.45724 15148 ft 324 kts 154°
2026-05-06 16:27 49.43457 1.47208 14848 ft 321 kts 154°
2026-05-06 16:27 49.41442 1.48686 14562 ft 322 kts 154°
2026-05-06 16:27 49.39431 1.50158 14271 ft 319 kts 154°
2026-05-06 16:27 49.37437 1.51617 13981 ft 316 kts 154°
2026-05-06 16:28 49.35453 1.53065 13681 ft 316 kts 153°
2026-05-06 16:28 49.33578 1.54822 13370 ft 316 kts 140°
2026-05-06 16:28 49.32005 1.57133 13077 ft 311 kts 128°
2026-05-06 16:28 49.30801 1.59863 12861 ft 309 kts 115°
2026-05-06 16:29 49.29994 1.62894 12775 ft 306 kts 104°
2026-05-06 16:29 49.29606 1.66083 12701 ft 304 kts 92°
2026-05-06 16:29 49.29463 1.69318 12455 ft 304 kts 91°
2026-05-06 16:29 49.29322 1.72543 12185 ft 303 kts 91°
2026-05-06 16:30 49.29179 1.75764 11928 ft 302 kts 91°
2026-05-06 16:30 49.29083 1.77885 11760 ft 302 kts 92°
2026-05-06 16:30 49.28887 1.82157 11420 ft 299 kts 92°
2026-05-06 16:30 49.28739 1.85322 11167 ft 297 kts 92°
2026-05-06 16:31 49.28596 1.88437 10920 ft 296 kts 92°
2026-05-06 16:31 49.28450 1.91608 10921 ft 296 kts 91°
2026-05-06 16:31 49.28307 1.94746 10946 ft 296 kts 92°
2026-05-06 16:31 49.28163 1.97894 10944 ft 296 kts 92°
2026-05-06 16:32 49.28019 2.01006 10945 ft 296 kts 92°
2026-05-06 16:32 49.27869 2.04150 10945 ft 296 kts 92°
2026-05-06 16:32 49.27719 2.07298 10945 ft 296 kts 92°
2026-05-06 16:32 49.27569 2.10438 10945 ft 296 kts 92°
2026-05-06 16:33 49.27418 2.13591 10944 ft 297 kts 92°
2026-05-06 16:33 49.27266 2.16742 10945 ft 297 kts 92°
2026-05-06 16:33 49.27114 2.19894 10943 ft 296 kts 92°
2026-05-06 16:34 49.26805 2.26184 10944 ft 296 kts 92°
2026-05-06 16:34 49.26645 2.29327 10944 ft 296 kts 93°
2026-05-06 16:34 49.26486 2.32469 10935 ft 296 kts 92°
2026-05-06 16:34 49.26328 2.35608 10936 ft 296 kts 92°
2026-05-06 16:35 49.26170 2.38751 10935 ft 296 kts 93°
2026-05-06 16:35 49.26011 2.41896 10933 ft 296 kts 93°
2026-05-06 16:35 49.25854 2.45030 10932 ft 296 kts 93°
2026-05-06 16:35 49.25695 2.48172 10934 ft 297 kts 92°
2026-05-06 16:36 49.25529 2.51319 10915 ft 296 kts 94°
2026-05-06 16:36 49.25191 2.54440 10723 ft 296 kts 99°
2026-05-06 16:36 49.24829 2.57530 10475 ft 294 kts 98°
2026-05-06 16:36 49.24465 2.60607 10230 ft 293 kts 98°
2026-05-06 16:37 49.24100 2.63660 9992 ft 292 kts 98°
2026-05-06 16:37 49.23736 2.66713 9803 ft 291 kts 99°
2026-05-06 16:37 49.23372 2.69774 9672 ft 293 kts 99°
2026-05-06 16:37 49.23007 2.72848 9537 ft 294 kts 99°
2026-05-06 16:38 49.22639 2.75924 9393 ft 294 kts 99°
2026-05-06 16:38 49.22279 2.78951 9120 ft 292 kts 99°
2026-05-06 16:38 49.21909 2.82039 8805 ft 291 kts 99°
2026-05-06 16:38 49.21544 2.85072 8494 ft 289 kts 99°
2026-05-06 16:39 49.21190 2.87995 8355 ft 276 kts 99°
2026-05-06 16:39 49.20848 2.90808 8216 ft 262 kts 100°
2026-05-06 16:39 49.20202 2.93330 8054 ft 252 kts 121°
2026-05-06 16:39 49.18979 2.95315 7494 ft 256 kts 147°
2026-05-06 16:40 49.17410 2.96368 7158 ft 246 kts 169°
2026-05-06 16:40 49.15751 2.96517 6897 ft 234 kts 185°
2026-05-06 16:40 49.14158 2.96412 6639 ft 225 kts 184°
2026-05-06 16:40 49.12613 2.96320 6402 ft 221 kts 184°
2026-05-06 16:41 49.11075 2.96231 6146 ft 220 kts 184°
2026-05-06 16:41 49.09570 2.96142 5922 ft 214 kts 184°
2026-05-06 16:41 49.08100 2.96055 5638 ft 209 kts 184°
2026-05-06 16:41 49.06656 2.95971 5270 ft 206 kts 184°
2026-05-06 16:42 49.05225 2.95886 4853 ft 207 kts 184°
2026-05-06 16:42 49.03793 2.95718 4515 ft 205 kts 194°
2026-05-06 16:42 49.02520 2.94859 4266 ft 197 kts 218°
2026-05-06 16:42 49.01601 2.93382 4051 ft 190 kts 241°
2026-05-06 16:43 49.01124 2.91540 3990 ft 186 kts 263°
2026-05-06 16:43 49.01000 2.89588 4000 ft 186 kts 270°
2026-05-06 16:43 49.00903 2.87624 3867 ft 186 kts 269°
2026-05-06 16:43 49.00804 2.85661 3647 ft 185 kts 269°
2026-05-06 16:44 49.00705 2.83706 3407 ft 185 kts 269°
2026-05-06 16:44 49.00605 2.81749 3162 ft 185 kts 269°
2026-05-06 16:44 49.00506 2.79807 2915 ft 184 kts 269°
2026-05-06 16:44 49.00406 2.77876 2668 ft 182 kts 269°
2026-05-06 16:45 49.00308 2.75960 2424 ft 182 kts 269°
2026-05-06 16:45 49.00209 2.74046 2177 ft 180 kts 269°
2026-05-06 16:45 49.00112 2.72194 1933 ft 169 kts 269°
2026-05-06 16:45 49.00023 2.70513 1719 ft 148 kts 270°
2026-05-06 16:46 48.99946 2.69043 1519 ft 133 kts 270°
2026-05-06 16:46 48.99875 2.67661 1341 ft 129 kts 271°
2026-05-06 16:46 48.99805 2.66319 1158 ft 127 kts 269°
2026-05-06 16:46 48.99736 2.64999 992 ft 126 kts 270°
2026-05-06 16:47 48.99667 2.63681 823 ft 124 kts 269°
2026-05-06 16:47 48.99598 2.62367 656 ft 125 kts 271°
2026-05-06 16:47 48.99529 2.61053 489 ft 124 kts 271°
2026-05-06 16:47 48.99461 2.59751 365 ft 122 kts 271°
2026-05-06 16:48 48.99405 2.58660 352 ft 81 kts 265°
2026-05-06 16:48 48.99372 2.58045 353 ft 44 kts 265°
2026-05-06 16:48 48.99352 2.57682 353 ft 29 kts 265°
2026-05-06 16:48 48.99367 2.57385 353 ft 27 kts 285°
2026-05-06 16:49 48.99416 2.57122 358 ft 24 kts 286°
2026-05-06 16:49 48.99451 2.56935 354 ft 18 kts 286°
2026-05-06 16:49 48.99476 2.56750 354 ft 18 kts 271°
2026-05-06 16:49 48.99466 2.56552 354 ft 19 kts 265°
2026-05-06 16:50 48.99456 2.56343 354 ft 20 kts 265°
2026-05-06 16:50 48.99449 2.56165 354 ft 11 kts 281°
2026-05-06 16:50 48.99487 2.56081 354 ft 9 kts 323°
2026-05-06 16:50 48.99528 2.56057 354 ft 10 kts 350°
2026-05-06 16:51 48.99629 2.56043 354 ft 12 kts 355°
2026-05-06 16:51 48.99715 2.56033 354 ft 12 kts 356°
2026-05-06 16:51 48.99804 2.56023 354 ft 13 kts 355°
2026-05-06 16:51 48.99874 2.55990 358 ft 11 kts 312°
2026-05-06 16:52 48.99902 2.55875 357 ft 12 kts 286°
2026-05-06 16:52 48.99928 2.55742 355 ft 14 kts 296°
2026-05-06 16:52 49.00008 2.55663 355 ft 15 kts 344°
2026-05-06 16:52 49.00109 2.55619 355 ft 16 kts 343°
2026-05-06 16:53 49.00216 2.55571 356 ft 17 kts 344°
2026-05-06 16:53 49.00331 2.55522 355 ft 18 kts 343°
2026-05-06 16:53 49.00453 2.55469 355 ft 18 kts 344°
2026-05-06 16:53 49.00581 2.55414 359 ft 19 kts 343°
2026-05-06 16:54 49.00693 2.55375 355 ft 11 kts
2026-05-06 16:54 49.00727 2.55457 355 ft 11 kts 84°
2026-05-06 16:54 49.00736 2.55572 355 ft 12 kts 83°
2026-05-06 16:54 49.00746 2.55700 355 ft 13 kts 84°
2026-05-06 16:55 49.00758 2.55842 355 ft 14 kts 80°
2026-05-06 16:55 49.00773 2.55990 355 ft 15 kts 82°
2026-05-06 16:55 49.00789 2.56151 355 ft 16 kts 81°
2026-05-06 16:55 49.00802 2.56295 355 ft 10 kts 82°
2026-05-06 16:56 49.00797 2.56395 355 ft 10 kts 113°
2026-05-06 16:56 49.00740 2.56446 358 ft 10 kts 173°
2026-05-06 16:56 49.00673 2.56467 360 ft 8 kts 154°
2026-05-06 16:56 49.00646 2.56504 357 ft 2 kts 128°
2026-05-06 16:57 49.00633 2.56522 361 ft 3 kts 147°
2026-05-06 16:57 49.00607 2.56530 355 ft 5 kts 178°
2026-05-06 16:57 49.00574 2.56531 355 ft 4 kts 179°
2026-05-06 16:57 49.00554 2.56532 355 ft 1 kts 179°